GFSGL_850_thetae_021.txt.gz
Theta_e
311 310 309 309 308 307 306 306 306 305 304 303 301 298 297 296 295 293 292 292 292 292 292 291 290 289 289 288 288 287 287 286 286 287 285 285 286 286 286 286 286 287 287
310 309 309 308 307 306 306 307 306 306 304 303 301 298 297 296 295 293 292 292 291 291 291 290 289 289 288 288 288 287 286 286 286 287 286 286 286 285 285 286 286 286 286
309 308 307 306 306 306 306 306 305 305 304 302 301 299 297 296 294 293 292 291 291 290 290 290 289 288 288 288 287 286 286 285 285 285 286 284 284 284 285 285 285 284 283
308 310 309 307 308 307 306 305 303 304 303 301 300 299 298 297 295 293 292 291 290 289 289 289 288 287 287 286 286 285 285 285 285 285 285 284 283 284 283 283 284 284 283
307 306 305 306 306 306 304 303 303 302 301 300 299 297 296 295 294 293 291 290 289 289 288 287 287 286 286 286 285 285 284 284 283 283 283 284 283 282 282 281 281 282 282
305 307 308 305 304 305 304 303 302 302 300 299 298 297 296 295 293 292 291 290 289 288 287 287 286 286 286 285 284 285 285 285 284 282 282 283 283 282 281 280 279 278 278
303 304 305 304 305 304 305 303 302 301 299 297 296 296 295 294 293 291 290 289 288 287 287 286 286 285 285 284 284 284 284 283 282 281 281 282 281 280 279 279 277 277 277
299 302 302 302 302 302 301 301 300 300 298 298 296 295 294 293 292 291 290 288 287 286 286 286 285 284 284 284 284 284 283 282 282 282 282 282 281 279 277 277 277 277 278
297 300 300 298 298 298 297 298 298 297 297 297 296 294 293 293 291 289 288 287 286 286 286 285 284 284 284 283 283 283 283 282 281 281 281 280 280 279 278 277 279 277 277
296 298 299 298 296 296 295 295 295 295 294 293 292 292 292 291 290 288 286 286 285 285 284 283 283 284 282 283 282 282 282 282 281 280 280 281 280 279 278 278 277 276 275
292 298 299 299 297 293 294 293 292 292 291 290 290 291 290 290 288 288 285 285 285 284 284 283 283 282 282 282 282 281 281 280 281 279 278 279 279 278 278 278 277 276 274
290 291 294 298 298 296 292 293 291 289 289 289 288 288 288 288 287 285 283 283 283 283 283 282 282 281 282 281 281 281 280 279 279 278 278 278 278 278 278 277 276 276 274
286 289 290 291 294 297 295 296 293 290 288 287 287 287 287 289 285 282 282 281 282 282 281 281 280 281 281 281 281 280 279 278 278 277 277 277 276 276 276 276 276 276 275
285 287 289 289 291 292 294 295 296 293 289 288 286 286 287 289 286 283 281 280 280 280 280 281 280 281 280 280 279 278 278 277 276 276 275 275 275 275 275 274 274 274 272
281 283 286 289 291 291 291 292 292 295 293 291 291 290 289 288 288 284 281 280 280 281 286 280 280 279 279 279 278 277 276 275 275 275 274 274 274 274 274 274 273 272 271
278 279 281 284 288 289 290 290 291 288 288 286 288 287 287 285 286 284 282 280 281 283 283 281 279 278 278 277 276 276 275 274 274 274 274 274 273 274 274 274 272 270 271
276 277 278 280 282 285 287 288 288 287 286 285 283 283 285 284 283 283 280 277 280 281 281 279 278 278 277 276 276 275 275 274 273 273 274 273 273 273 272 273 271 270 270
274 275 276 278 281 282 284 284 284 284 283 283 280 279 279 280 281 278 278 277 277 277 280 278 278 277 276 276 275 274 274 273 272 273 273 273 272 272 272 271 270 269 270
273 274 274 276 280 281 282 283 282 281 280 280 280 279 278 278 278 278 277 278 278 280 278 276 276 275 275 274 274 273 273 272 272 272 273 272 271 271 271 270 269 269 269
273 274 275 277 278 280 280 281 280 280 279 279 278 278 277 278 278 279 279 278 280 279 277 275 274 275 274 274 273 273 272 271 271 272 272 272 271 270 270 270 269 269 268
273 274 275 276 277 278 279 279 279 278 277 277 278 277 278 279 279 278 277 278 278 276 274 274 274 274 273 273 273 272 272 271 271 271 272 271 270 270 270 269 269 268 268
274 275 275 276 277 277 277 277 277 276 277 276 277 277 278 278 277 277 277 277 276 273 273 273 273 273 272 272 272 271 271 271 271 271 271 271 270 270 270 269 269 268 268
275 275 276 276 276 276 275 275 275 276 276 275 276 277 277 277 277 276 276 274 272 272 272 272 272 272 272 271 271 271 271 270 270 270 270 270 270 270 269 269 269 268 267
274 274 274 274 274 274 274 274 274 275 275 274 274 276 275 275 276 276 273 272 271 271 272 272 272 271 271 271 270 270 270 270 270 270 270 270 269 269 269 269 269 268 267
272 272 272 272 272 273 273 273 273 273 273 274 274 274 274 275 274 273 271 271 271 271 271 272 271 271 271 271 270 270 270 269 270 270 270 269 269 269 269 269 269 268 268
270 270 271 271 271 271 271 271 272 272 273 273 274 274 274 274 273 271 271 271 271 271 271 271 270 271 271 270 270 269 269 269 270 270 270 269 269 269 269 269 269 268 267

GFSGL_850_thetae_024.txt.gz
Theta_e
305 306 306 305 304 306 307 307 307 306 305 305 304 302 301 299 298 298 297 296 294 293 293 292 292 292 292 291 290 289 289 288 287 287 287 288 288 288 289 289 288 288 288
305 305 304 304 304 304 304 305 305 306 305 304 304 302 301 300 299 298 297 297 295 295 293 292 292 291 291 290 290 289 288 287 286 286 286 286 287 287 286 286 286 287 288
304 305 305 304 304 304 305 304 303 303 303 303 303 302 301 300 299 298 297 296 296 296 294 292 292 291 291 290 289 288 287 286 286 285 285 286 286 285 285 285 286 285 284
300 302 304 305 305 304 303 303 303 303 303 302 302 302 302 300 300 297 297 296 295 295 293 292 291 291 290 290 288 288 287 286 286 286 285 285 285 285 285 285 284 285 284
295 297 301 304 305 305 305 303 301 301 301 300 301 301 301 300 299 298 297 296 295 294 292 291 290 290 289 289 288 287 286 286 286 285 285 286 285 285 284 284 284 284 284
297 294 296 300 302 303 302 302 303 302 299 299 299 300 299 299 299 297 296 296 295 294 292 291 290 289 288 288 287 287 286 286 286 285 286 285 285 284 283 283 283 283 281
290 293 293 297 298 298 300 301 300 301 299 299 298 297 299 298 297 296 295 295 294 293 292 290 289 288 288 287 286 286 285 285 285 286 286 285 283 283 283 283 283 281 280
289 290 294 293 297 298 296 295 297 297 297 297 297 296 297 297 295 295 294 294 293 292 291 290 289 288 287 287 285 284 285 285 284 284 284 283 282 283 282 281 281 279 280
287 287 289 292 293 296 298 296 293 292 294 295 295 295 294 293 294 293 293 292 291 291 289 288 287 287 286 286 285 283 283 284 283 283 284 283 282 281 280 280 281 280 281
285 286 286 288 290 293 294 295 294 292 291 291 291 292 293 292 291 291 290 290 290 289 288 287 286 286 285 284 283 282 282 283 283 283 283 282 281 281 280 280 279 279 279
284 284 285 286 287 290 293 294 291 291 293 290 290 289 289 289 290 288 287 288 289 288 287 286 285 285 283 282 282 282 282 281 281 283 282 281 280 280 279 279 278 278 278
283 283 284 285 285 287 289 291 293 290 289 292 288 287 286 287 287 286 285 285 287 287 287 286 286 284 283 282 280 280 280 279 281 281 280 280 279 279 278 278 278 277 276
282 283 282 283 284 284 286 289 290 291 289 290 291 288 286 287 286 284 285 284 286 286 285 286 284 283 283 280 279 279 280 280 280 280 279 278 278 277 277 277 277 277 277
278 280 280 281 281 282 284 286 288 290 290 289 288 292 290 287 286 284 284 285 283 284 284 285 283 281 280 280 280 279 280 279 279 278 277 277 277 277 277 276 276 276 276
275 277 277 278 279 280 280 283 285 288 289 289 291 289 290 290 290 288 285 284 283 282 284 282 279 279 279 282 281 279 279 278 278 277 276 276 276 275 275 275 275 275 275
272 274 274 273 276 277 278 280 282 284 287 289 288 289 289 289 288 287 286 283 283 282 282 280 278 280 281 281 279 277 277 277 276 275 275 275 275 275 274 274 274 274 274
268 270 271 272 272 274 275 278 280 282 284 284 284 282 285 287 286 286 284 282 282 280 281 280 279 281 281 280 278 277 276 276 275 275 275 275 274 274 273 273 273 273 273
267 268 268 269 271 272 274 276 279 280 282 284 283 282 282 281 282 283 283 282 281 279 279 281 281 281 280 279 277 276 275 275 274 274 274 274 273 273 272 272 272 272 272
265 265 266 267 269 271 273 275 278 279 280 282 281 281 282 281 279 280 281 281 281 278 278 280 281 280 279 277 275 275 275 274 274 273 273 273 273 272 271 271 271 271 270
266 267 269 270 271 271 272 275 278 279 280 280 280 280 281 280 279 279 280 281 280 278 277 280 280 279 277 275 274 274 274 274 273 273 273 272 272 271 271 270 270 270 269
267 269 271 271 271 271 272 274 277 278 278 278 279 279 280 280 279 279 281 280 278 278 278 279 278 277 274 273 274 274 273 273 273 272 272 271 271 271 270 270 270 270 269
269 270 271 272 272 273 275 276 276 277 277 277 277 278 279 279 279 279 280 279 278 278 278 277 276 273 273 273 273 273 273 272 271 271 271 271 271 270 270 270 269 269 269
270 271 274 275 274 275 276 276 276 275 275 276 277 278 279 278 279 279 279 278 278 276 275 274 272 272 272 272 272 272 272 271 271 270 270 271 270 270 269 269 269 269 268
270 271 273 273 274 274 274 274 274 275 275 276 276 277 278 278 278 278 277 276 276 275 273 272 272 272 272 271 271 271 271 271 270 270 270 270 270 270 269 269 269 268 268
270 271 271 272 272 273 273 274 274 275 275 275 276 276 277 277 277 276 276 275 274 272 271 271 271 271 271 271 270 270 270 270 270 270 270 270 270 269 269 269 269 268 268
269 269 270 271 271 271 272 272 273 273 274 274 275 275 275 275 275 275 274 271 270 271 271 271 271 270 270 270 270 270 270 270 270 269 270 270 269 269 269 269 269 268 267

GFSGL_850_thetae_030.txt.gz
Theta_e
299 298 297 297 298 298 300 300 301 301 299 298 299 299 299 299 300 300 300 300 299 298 297 296 295 295 295 295 295 295 295 295 294 294 293 292 291 291 290 290 290 291 291
294 296 297 297 296 296 297 298 299 299 301 299 297 297 297 298 299 299 300 299 299 299 298 297 296 295 294 294 294 294 295 295 294 294 292 292 291 290 289 289 289 290 290
291 291 291 293 295 296 294 295 297 298 298 299 299 296 296 296 297 298 298 299 298 299 298 297 297 295 294 294 294 293 294 294 294 294 292 291 290 289 288 288 288 289 289
288 288 288 288 288 289 291 291 292 295 296 298 298 299 297 295 295 296 296 297 297 298 298 297 297 296 296 295 293 293 292 293 292 293 292 290 290 289 287 287 287 288 288
286 286 286 286 287 287 287 288 288 289 291 294 297 298 298 297 294 294 294 295 295 296 297 297 297 296 295 294 293 293 292 292 291 291 291 290 289 288 288 288 287 287 288
285 285 286 286 286 286 285 286 286 286 286 287 291 296 299 298 296 294 293 292 293 294 295 296 296 296 296 294 293 293 292 292 291 290 290 290 290 289 288 288 288 288 288
285 285 285 285 285 285 285 285 285 285 285 285 285 287 293 296 298 297 293 291 292 292 292 294 295 296 296 295 293 292 291 290 290 290 290 290 289 289 288 287 287 287 287
285 285 285 285 285 285 285 285 285 285 285 285 285 285 286 291 295 295 294 290 290 292 290 291 293 294 295 295 293 292 291 290 289 289 287 287 288 287 286 286 286 285 285
284 283 283 284 284 285 285 285 285 284 284 284 285 285 285 286 290 295 292 292 290 290 292 289 288 289 292 293 292 290 289 290 289 288 287 286 286 285 284 285 285 284 283
282 282 281 282 282 283 284 284 285 284 284 284 284 284 284 285 286 290 293 288 290 289 288 289 291 288 287 288 287 287 288 290 288 286 285 284 284 283 283 284 283 283 283
278 279 280 279 278 279 280 282 282 283 284 284 283 283 284 284 284 286 291 290 289 288 288 289 290 290 285 285 285 287 289 288 286 286 284 284 282 282 282 283 283 283 283
276 275 275 274 274 274 274 276 278 279 280 282 282 282 283 284 284 285 288 292 289 287 287 287 287 288 288 286 284 286 286 284 285 285 283 283 282 282 282 282 282 283 281
273 272 271 271 270 270 270 271 271 272 274 278 279 279 281 282 283 284 285 289 291 286 286 286 287 287 286 285 284 284 284 283 284 284 282 282 282 282 281 282 283 279 278
269 268 267 267 267 266 267 267 268 269 271 272 275 276 279 281 282 282 284 288 289 287 285 286 286 286 285 284 283 283 282 282 282 283 282 282 281 280 282 282 279 278 277
265 264 263 264 264 264 265 265 266 267 269 270 272 273 276 280 281 282 282 285 287 288 285 285 283 283 283 282 282 283 281 280 280 280 280 280 282 282 280 278 278 277 277
263 263 263 262 263 263 263 264 265 267 268 270 272 273 274 276 279 282 282 282 284 284 284 283 282 283 282 282 283 281 280 280 280 280 281 284 283 280 280 277 276 276 275
263 263 263 262 263 263 263 263 264 265 266 268 270 272 274 276 278 282 282 283 283 284 284 283 282 283 282 282 282 282 280 281 281 283 283 281 280 280 277 277 275 274 275
263 264 263 263 263 263 263 264 264 264 265 266 268 270 272 276 281 282 284 283 283 283 283 282 282 282 282 281 281 281 281 281 281 281 280 279 279 278 278 275 274 274 274
264 264 264 264 264 264 264 264 265 265 265 266 268 271 275 278 279 281 284 283 283 283 283 281 281 281 282 281 281 280 281 280 280 280 279 279 277 277 274 274 274 274 273
264 264 265 265 265 266 266 265 266 266 266 267 268 271 276 277 279 281 284 283 283 283 283 281 280 280 281 281 280 279 279 279 279 278 277 276 275 273 273 274 273 273 272
265 265 266 266 267 267 268 268 268 268 269 269 272 275 276 277 278 281 284 283 282 282 282 280 280 280 281 281 280 278 278 278 278 277 276 274 273 274 273 273 272 272 272
265 267 267 268 268 269 270 272 272 272 272 273 274 275 276 277 279 281 282 282 281 281 281 281 280 280 280 280 279 277 277 277 276 275 274 274 273 273 272 272 272 271 271
267 267 268 269 269 270 271 272 273 273 274 274 275 275 276 277 279 280 281 280 280 279 279 279 280 279 279 277 276 276 276 275 275 275 274 274 273 272 271 271 271 271 270
267 268 268 269 270 270 271 271 272 273 273 274 274 275 276 277 278 279 278 278 278 277 277 277 277 278 277 275 274 274 274 274 274 273 272 272 271 271 271 270 270 270 269
267 268 269 269 270 270 271 271 271 272 272 273 273 274 274 276 276 276 276 276 275 276 276 276 275 275 274 274 274 274 274 273 272 271 271 271 270 270 270 270 270 269 269
268 268 269 269 270 271 271 271 271 271 271 271 272 273 273 274 274 274 274 274 274 274 273 273 273 273 273 273 273 273 272 271 270 270 270 270 270 270 270 269 269 269 269

GFSGL_850_thetae_033.txt.gz
Theta_e
292 292 292 291 290 293 296 296 297 297 297 299 300 299 298 297 296 295 296 296 297 298 297 297 297 297 296 296 295 295 295 295 296 296 296 296 295 295 295 293 291 291 291
289 289 289 288 288 288 288 289 291 294 296 296 296 298 298 297 296 295 295 294 295 295 297 298 298 296 296 296 295 295 295 295 295 295 295 296 295 294 293 293 292 291 290
288 288 287 286 286 286 286 286 287 288 289 290 292 294 296 298 296 295 293 294 294 294 295 296 296 296 297 296 295 295 294 294 294 293 294 294 294 293 291 291 292 291 290
287 286 286 286 286 286 286 286 286 286 286 287 287 288 289 293 297 295 294 293 293 293 293 293 294 295 296 296 296 295 294 294 293 293 292 293 293 292 290 290 291 291 290
286 286 286 286 286 286 286 286 286 286 286 286 286 286 287 287 287 292 296 294 294 292 292 293 293 294 294 294 295 295 295 294 293 292 292 292 292 291 291 290 288 290 289
286 286 286 286 286 286 286 286 286 286 285 285 285 285 286 286 286 285 287 295 294 293 291 291 292 293 293 292 293 293 294 295 293 293 292 292 292 291 292 291 288 287 288
286 286 286 286 286 286 286 286 285 285 285 285 285 285 285 285 285 285 285 285 291 295 292 290 290 291 291 292 291 290 291 293 293 294 293 293 292 292 292 292 289 288 288
285 285 285 284 284 285 285 285 285 285 285 285 285 285 285 286 285 285 285 284 285 288 295 293 291 290 290 291 291 290 289 289 290 290 292 292 292 292 292 292 291 288 286
281 281 281 281 281 282 283 283 283 283 283 284 284 284 284 285 285 285 285 284 284 285 286 293 293 291 289 288 289 289 288 289 289 288 289 290 290 290 290 290 287 286 285
280 279 279 279 279 278 278 278 279 280 281 281 282 283 283 283 284 284 284 284 284 284 285 287 292 293 291 287 287 287 287 287 286 286 286 286 287 287 289 288 288 287 285
278 277 276 276 276 275 275 275 275 275 274 276 278 281 281 282 283 283 282 283 283 284 284 285 289 292 291 289 288 287 290 290 286 286 285 285 285 285 286 287 286 285 285
275 275 274 273 272 271 271 271 270 271 271 271 271 273 278 280 279 280 281 283 284 285 285 286 287 290 289 288 287 286 285 286 286 285 285 284 284 284 284 284 284 283 283
274 272 271 270 269 268 267 267 267 267 268 269 270 271 272 274 276 278 280 282 284 284 284 285 287 287 288 287 287 286 285 285 285 284 284 284 284 284 283 282 283 282 282
272 270 268 266 265 265 265 265 265 265 266 267 268 269 270 271 273 275 279 281 282 283 282 284 286 287 287 287 286 286 285 285 285 284 283 283 282 281 282 283 282 282 281
268 266 265 265 264 264 264 264 264 265 265 266 267 267 268 269 270 273 276 278 281 282 282 283 285 285 286 285 285 285 285 285 284 283 283 282 281 280 281 281 281 281 281
265 264 264 263 263 264 264 264 265 266 267 268 268 269 270 270 272 273 275 276 278 280 283 283 284 284 284 284 284 284 284 284 283 282 282 281 280 280 281 281 280 280 281
264 263 263 264 264 263 264 264 264 265 266 267 268 268 269 270 271 273 274 275 277 280 283 284 284 283 283 283 283 284 283 283 282 281 281 281 280 280 281 280 280 280 278
264 264 264 264 264 264 264 265 265 265 265 266 267 267 268 269 271 272 274 276 278 280 282 284 284 283 282 282 283 283 282 281 280 281 281 280 279 279 279 280 279 278 277
265 265 265 264 265 265 265 266 266 266 266 267 268 269 270 270 270 273 275 277 281 284 284 284 283 282 282 282 283 283 282 281 280 280 280 278 278 278 277 277 276 276 276
266 266 266 265 265 266 266 267 267 268 268 269 269 271 273 273 275 277 278 280 281 283 284 283 283 282 282 282 282 282 281 279 279 279 279 278 277 277 277 276 276 275 274
266 266 266 267 267 267 267 268 269 271 272 271 272 273 272 275 277 277 279 281 283 284 283 283 282 281 282 282 282 281 280 279 278 279 278 277 277 276 276 276 274 274 274
267 267 267 267 267 268 268 268 269 270 271 271 272 272 274 275 276 278 279 282 283 282 282 282 281 281 281 281 281 280 279 278 277 277 277 277 276 275 274 274 274 273 273
268 268 268 268 268 268 269 269 270 270 270 271 272 273 274 274 275 277 278 280 280 280 280 280 280 280 280 280 279 278 278 277 277 277 277 276 275 274 274 274 273 273 272
270 269 268 268 268 268 269 269 270 270 270 270 271 271 272 274 275 276 277 277 277 277 276 276 277 278 278 277 277 276 276 276 275 275 275 275 274 274 273 273 272 271 270
270 270 269 269 269 269 269 269 269 270 270 271 271 271 272 272 273 274 274 275 275 275 275 276 276 276 276 275 275 274 274 274 274 274 274 274 273 273 272 271 270 270 270
270 270 270 270 270 270 270 269 269 269 270 271 271 271 271 272 272 273 273 273 274 274 274 274 273 273 273 273 273 273 273 273 273 273 272 271 271 270 270 270 270 270 269